Terminal Aerodrome Forecast
Issued by NWS Greer, SC

Home | Current Version | Previous Version | Text Only | Print | Product List | Glossary On
Versions: 1 2 3 4 5 6 7 8 9 10 11 12 13 14 15 16 17 18 19 20 21 22 23 24 25 26 27 28 29 30 31 32 33 34 35 36 37 38 39 40 41 42 43 44 45 46 47 48 49 50
000
FTUS42 KGSP 022337
TAFCLT
TAF
KCLT 022337Z 0300/0324 23010KT P6SM FEW040 SCT150 BKN250
     FM030600 24005KT P6SM BKN100
     FM031500 22010KT P6SM VCSH BKN050 PROB30 0316/0318 4SM TSRA
      BKN040CB=

USA.gov is the U.S. government's official web portal to all federal, state and local government web resources and services.